Regional Weather Roundup
Issued by NWS

Home | Current Version | Previous Version | Text Only | Print | Product List | Glossary Off
Versions: 1 2 3 4 5 6 7 8 9 10 11 12 13 14 15 16 17 18 19 20 21 22 23 24 25 26 27 28 29 30 31 32 33 34 35 36 37 38 39 40 41 42 43 44 45 46 47 48 49 50

000
ASUS43 KFSD 252102
RWRSD

WEATHER ROUNDUP FOR SOUTH DAKOTA
NATIONAL WEATHER SERVICE SIOUX FALLS SD
400 PM CDT WED MAY 25 2016

NOTE: "FAIR" INDICATES FEW OR NO CLOUDS BELOW 12,000 FEET WITH NO
SIGNIFICANT WEATHER AND/OR OBSTRUCTIONS TO VISIBILITY.


SDZ001>005-009-010-012>017-252200-
NORTHWEST AND NORTH CENTRAL SOUTH DAKOTA

CITY           SKY/WX    TMP DP  RH WIND       PRES   REMARKS
BUFFALO          N/A     65  46  50 NW17G25   29.80S
FAITH            N/A     70  46  42 NW17G24   29.82S
MOBRIDGE       MOSUNNY   75  55  49 NW3       29.73S
$$

SDZ012>016-024>037-041>051-057-063-072>074-252200-
SOUTHWEST AND SOUTH CENTRAL SOUTH DAKOTA

CITY           SKY/WX    TMP DP  RH WIND       PRES   REMARKS
RAPID CTY ARPT MOSUNNY   63  53  70 N16       29.87R
PIERRE         MOSUNNY   75  56  51 NW12      29.76S
CUSTER         CLOUDY    60  39  45 SW14G22   29.93F
ELLSWORTH AFB  MOSUNNY   63  52  67 N21G29    29.88
PHILIP         CLOUDY    62  59  90 NW13      29.82S THUNDER
PINE RIDGE     CLOUDY    72  44  36 W15G24    29.87F
$$

SDZ004>011-016>023-039-040-252200-
NORTHEAST SOUTH DAKOTA

CITY           SKY/WX    TMP DP  RH WIND       PRES   REMARKS
ABERDEEN       MOSUNNY   75  59  57 W9        29.74S
WATERTOWN      MOSUNNY   75  58  55 SW15G25   29.78S
BROOKINGS      PTSUNNY   74  60  61 SW13      29.80F
SISSETON         N/A     75  59  57 W13       29.73R
$$

SDZ017-020-022-023-036>040-048>070-252200-
SOUTHEAST SOUTH DAKOTA

CITY           SKY/WX    TMP DP  RH WIND       PRES   REMARKS
SIOUX FALLS    MOSUNNY   77  60  55 W9        29.80F
HURON          MOSUNNY   75  59  57 SW5       29.77F
MITCHELL       PTSUNNY   74  59  59 SW6G16    29.79F
YANKTON        MOSUNNY   81  57  44 SW13G18   29.78S
$$

ABBREVIATIONS USED IN REMARKS
   TC - TEMPERATURE IN CELSIUS
  WCI - WIND CHILL INDEX
   HX - HEAT INDEX
  VSB - VISIBILITY





USA.gov is the U.S. government's official web portal to all federal, state and local government web resources and services.